NKS2 KMCO-KEWR

Flight info

Callsign NKS2
Flight time 2h 5m
Altitude 35000
Route FATHE3 VIYAP Q87 ALWZZ OGRAE Q99 QUART PHLBO4
Aircraft A21N/M-SDE2E3FGHIRWXY/LB1

Departure

Time 2026-05-05 06:47
Airport Orlando International Airport (KMCO)

Arrival

Time 2026-05-05 08:52
Airport Newark Liberty International Airport (KEWR)
Time Latitude Longitude Altitude Speed Heading
2026-05-05 06:26 28.42556 -81.30109 106 ft 0 kts 55°
2026-05-05 06:33 28.42547 -81.30118 106 ft 4 kts 41°
2026-05-05 06:34 28.42527 -81.30137 105 ft 4 kts 36°
2026-05-05 06:34 28.42504 -81.30155 106 ft 4 kts 36°
2026-05-05 06:34 28.42485 -81.30174 106 ft 4 kts 64°
2026-05-05 06:34 28.42482 -81.30189 105 ft 1 kts 120°
2026-05-05 06:35 28.42484 -81.30192 106 ft 0 kts 120°
2026-05-05 06:39 28.42474 -81.30173 105 ft 5 kts 122°
2026-05-05 06:39 28.42449 -81.30146 106 ft 5 kts 148°
2026-05-05 06:39 28.42410 -81.30136 106 ft 6 kts 176°
2026-05-05 06:39 28.42367 -81.30134 107 ft 6 kts 177°
2026-05-05 06:40 28.42316 -81.30131 106 ft 8 kts 177°
2026-05-05 06:40 28.42277 -81.30118 105 ft 1 kts 111°
2026-05-05 06:40 28.42277 -81.30104 106 ft 3 kts 92°
2026-05-05 06:40 28.42277 -81.30058 106 ft 8 kts 88°
2026-05-05 06:41 28.42278 -81.29979 107 ft 12 kts 90°
2026-05-05 06:41 28.42278 -81.29867 107 ft 16 kts 96°
2026-05-05 06:41 28.42185 -81.29791 105 ft 20 kts 180°
2026-05-05 06:41 28.42032 -81.29788 104 ft 24 kts 178°
2026-05-05 06:42 28.41860 -81.29786 104 ft 25 kts 179°
2026-05-05 06:42 28.41689 -81.29784 104 ft 24 kts 179°
2026-05-05 06:42 28.41524 -81.29782 105 ft 23 kts 179°
2026-05-05 06:42 28.41362 -81.29780 104 ft 23 kts 179°
2026-05-05 06:43 28.41205 -81.29777 104 ft 22 kts 179°
2026-05-05 06:43 28.41050 -81.29778 104 ft 22 kts 180°
2026-05-05 06:43 28.40958 -81.29779 103 ft 12 kts 180°
2026-05-05 06:43 28.40875 -81.29779 103 ft 12 kts 176°
2026-05-05 06:44 28.40827 -81.29735 102 ft 0 kts 106°
2026-05-05 06:44 28.40824 -81.29719 102 ft 7 kts 97°
2026-05-05 06:45 28.40824 -81.29652 101 ft 0 kts 89°
2026-05-05 06:45 28.40825 -81.29605 101 ft 10 kts 81°
2026-05-05 06:45 28.40876 -81.29561 99 ft 12 kts
2026-05-05 06:46 28.40889 -81.29561 102 ft 0 kts
2026-05-05 06:46 28.40905 -81.29560 103 ft 15 kts
2026-05-05 06:46 28.41219 -81.29564 105 ft 74 kts 359°
2026-05-05 06:46 28.41935 -81.29565 107 ft 134 kts
2026-05-05 06:47 28.43018 -81.29572 253 ft 166 kts
2026-05-05 06:47 28.44196 -81.29494 727 ft 170 kts
2026-05-05 06:47 28.45327 -81.29207 1408 ft 165 kts 20°
2026-05-05 06:47 28.46399 -81.28685 1879 ft 176 kts 28°
2026-05-05 06:48 28.47541 -81.27962 2127 ft 199 kts 33°
2026-05-05 06:48 28.48782 -81.27129 2474 ft 213 kts 33°
2026-05-05 06:48 28.50082 -81.26257 2976 ft 219 kts 34°
2026-05-05 06:48 28.51475 -81.25516 3558 ft 225 kts 21°
2026-05-05 06:49 28.53080 -81.25182 3906 ft 246 kts
2026-05-05 06:49 28.54852 -81.25066 4254 ft 264 kts
2026-05-05 06:49 28.56730 -81.25120 4832 ft 273 kts 359°
2026-05-05 06:49 28.58638 -81.25273 5579 ft 276 kts 354°
2026-05-05 06:50 28.60550 -81.25556 6329 ft 279 kts 352°
2026-05-05 06:50 28.62454 -81.25854 6814 ft 281 kts 352°
2026-05-05 06:50 28.64408 -81.26137 7305 ft 286 kts 352°
2026-05-05 06:50 28.66393 -81.26414 8066 ft 288 kts 352°
2026-05-05 06:51 28.68387 -81.26690 8820 ft 289 kts 352°
2026-05-05 06:51 28.70387 -81.26964 9578 ft 290 kts 352°
2026-05-05 06:51 28.72405 -81.27241 10257 ft 296 kts 351°
2026-05-05 06:51 28.74509 -81.27531 10560 ft 314 kts 351°
2026-05-05 06:52 28.76742 -81.27838 10825 ft 332 kts 351°
2026-05-05 06:52 28.79093 -81.28160 11074 ft 348 kts 352°
2026-05-05 06:52 28.81559 -81.28497 11293 ft 363 kts 352°
2026-05-05 06:52 28.84114 -81.28827 11503 ft 377 kts 353°
2026-05-05 06:53 28.86771 -81.29082 11694 ft 389 kts 354°
2026-05-05 06:53 28.89513 -81.29315 11874 ft 400 kts 354°
2026-05-05 06:53 28.92312 -81.29550 12096 ft 406 kts 354°
2026-05-05 06:53 28.95137 -81.29787 12392 ft 409 kts 354°
2026-05-05 06:54 28.97985 -81.30028 12726 ft 411 kts 354°
2026-05-05 06:54 29.00860 -81.30245 13052 ft 413 kts 355°
2026-05-05 06:54 29.03740 -81.30427 13367 ft 415 kts 355°
2026-05-05 06:54 29.06635 -81.30591 13668 ft 417 kts 355°
2026-05-05 06:55 29.09534 -81.30749 13964 ft 419 kts 355°
2026-05-05 06:55 29.12450 -81.30909 14263 ft 420 kts 355°
2026-05-05 06:55 29.15374 -81.31072 14556 ft 422 kts 355°
2026-05-05 06:55 29.18318 -81.31240 14833 ft 424 kts 355°
2026-05-05 06:56 29.21275 -81.31410 15112 ft 426 kts 354°
2026-05-05 06:56 29.24242 -81.31582 15422 ft 427 kts 354°
2026-05-05 06:56 29.27215 -81.31756 15721 ft 429 kts 354°
2026-05-05 06:56 29.30203 -81.31930 16015 ft 431 kts 354°
2026-05-05 06:57 29.33203 -81.32106 16307 ft 432 kts 354°
2026-05-05 06:57 29.36178 -81.32279 16588 ft 434 kts 354°
2026-05-05 06:57 29.39198 -81.32456 16861 ft 435 kts 354°
2026-05-05 06:57 29.42232 -81.32635 17114 ft 437 kts 354°
2026-05-05 06:58 29.45276 -81.32814 17346 ft 439 kts 354°
2026-05-05 06:58 29.48334 -81.32994 17577 ft 440 kts 354°
2026-05-05 06:58 29.51395 -81.33174 17797 ft 442 kts 354°
2026-05-05 06:58 29.54469 -81.33355 18012 ft 443 kts 354°
2026-05-05 06:59 29.57550 -81.33536 18237 ft 444 kts 354°
2026-05-05 06:59 29.60645 -81.33717 18449 ft 445 kts 353°
2026-05-05 06:59 29.63737 -81.33899 18667 ft 446 kts 353°
2026-05-05 06:59 29.66847 -81.34082 18875 ft 447 kts 353°
2026-05-05 07:00 29.69961 -81.34264 19065 ft 449 kts 353°
2026-05-05 07:00 29.73083 -81.34448 19302 ft 450 kts 353°
2026-05-05 07:00 29.76205 -81.34632 19521 ft 451 kts 353°
2026-05-05 07:00 29.79347 -81.34818 19723 ft 452 kts 353°
2026-05-05 07:01 29.82491 -81.35004 19936 ft 453 kts 353°
2026-05-05 07:01 29.85642 -81.35190 20139 ft 454 kts 353°
2026-05-05 07:01 29.88805 -81.35377 20348 ft 456 kts 353°
2026-05-05 07:01 29.91982 -81.35566 20577 ft 457 kts 353°
2026-05-05 07:02 29.95163 -81.35754 20792 ft 458 kts 353°
2026-05-05 07:02 29.98350 -81.35943 21048 ft 459 kts 353°
2026-05-05 07:02 30.01547 -81.36133 21277 ft 461 kts 353°
2026-05-05 07:02 30.04750 -81.36324 21512 ft 462 kts 353°
2026-05-05 07:03 30.07972 -81.36515 21778 ft 464 kts 353°
2026-05-05 07:03 30.11207 -81.36707 22054 ft 466 kts 353°
2026-05-05 07:03 30.14450 -81.36900 22346 ft 467 kts 353°
2026-05-05 07:03 30.17697 -81.37092 22637 ft 468 kts 353°
2026-05-05 07:04 30.20924 -81.37284 22904 ft 470 kts 353°
2026-05-05 07:04 30.24200 -81.37479 23156 ft 473 kts 353°
2026-05-05 07:04 30.27485 -81.37674 23538 ft 471 kts 352°
2026-05-05 07:04 30.30747 -81.37867 24000 ft 469 kts 352°
2026-05-05 07:05 30.34006 -81.38060 24438 ft 467 kts 352°
2026-05-05 07:05 30.37257 -81.38253 24839 ft 467 kts 352°
2026-05-05 07:05 30.40494 -81.38445 25248 ft 465 kts 352°
2026-05-05 07:05 30.42638 -81.38573 25507 ft 465 kts 352°
2026-05-05 07:06 30.45862 -81.38766 25890 ft 463 kts 351°
2026-05-05 07:06 30.49077 -81.38958 26277 ft 462 kts 351°
2026-05-05 07:06 30.52287 -81.39151 26629 ft 462 kts 351°
2026-05-05 07:06 30.55491 -81.39343 26996 ft 461 kts 351°
2026-05-05 07:07 30.58695 -81.39536 27385 ft 459 kts 351°
2026-05-05 07:07 30.61882 -81.39727 27728 ft 458 kts 351°
2026-05-05 07:07 30.65064 -81.39918 28071 ft 457 kts 351°
2026-05-05 07:07 30.68248 -81.40109 28401 ft 456 kts 351°
2026-05-05 07:08 30.71416 -81.40299 28741 ft 455 kts 350°
2026-05-05 07:08 30.74576 -81.40489 29074 ft 454 kts 350°
2026-05-05 07:08 30.77725 -81.40679 29382 ft 454 kts 350°
2026-05-05 07:08 30.80882 -81.40871 29679 ft 454 kts 350°
2026-05-05 07:09 30.84033 -81.41062 30022 ft 453 kts 350°
2026-05-05 07:09 30.87183 -81.41252 30350 ft 451 kts 350°
2026-05-05 07:09 30.90269 -81.41437 30692 ft 450 kts 350°
2026-05-05 07:09 30.93430 -81.41627 31035 ft 448 kts 350°
2026-05-05 07:10 30.96499 -81.41812 31319 ft 447 kts 350°
2026-05-05 07:10 30.99611 -81.42001 31594 ft 447 kts 350°
2026-05-05 07:10 31.02747 -81.42190 31899 ft 445 kts 349°
2026-05-05 07:10 31.05802 -81.42375 32171 ft 444 kts 350°
2026-05-05 07:11 31.08891 -81.42563 32408 ft 444 kts 349°
2026-05-05 07:11 31.11980 -81.42751 32643 ft 443 kts 349°
2026-05-05 07:11 31.15057 -81.42940 32863 ft 443 kts 349°
2026-05-05 07:11 31.18136 -81.43127 33095 ft 442 kts 349°
2026-05-05 07:12 31.21213 -81.43270 33352 ft 444 kts 353°
2026-05-05 07:12 31.24319 -81.43004 33561 ft 452 kts
2026-05-05 07:12 31.27412 -81.42150 33732 ft 462 kts 12°
2026-05-05 07:12 31.30430 -81.40798 33893 ft 467 kts 15°
2026-05-05 07:13 31.33420 -81.39279 34047 ft 469 kts 17°
2026-05-05 07:13 31.36384 -81.37676 34238 ft 469 kts 18°
2026-05-05 07:13 31.39332 -81.36041 34405 ft 469 kts 18°
2026-05-05 07:13 31.42281 -81.34396 34563 ft 469 kts 18°
2026-05-05 07:14 31.45227 -81.32760 34708 ft 469 kts 18°
2026-05-05 07:14 31.48183 -81.31132 34841 ft 469 kts 18°
2026-05-05 07:14 31.51143 -81.29511 34951 ft 470 kts 18°
2026-05-05 07:14 31.54108 -81.27895 35055 ft 471 kts 18°
2026-05-05 07:15 31.57083 -81.26275 35072 ft 471 kts 17°
2026-05-05 07:15 31.63018 -81.23042 35060 ft 470 kts 17°
2026-05-05 07:16 31.68957 -81.19802 35066 ft 471 kts 17°
2026-05-05 07:16 31.74902 -81.16553 35055 ft 471 kts 18°
2026-05-05 07:17 31.80810 -81.13318 35051 ft 471 kts 18°
2026-05-05 07:17 31.86754 -81.10059 35045 ft 472 kts 18°
2026-05-05 07:18 31.92715 -81.06785 35046 ft 472 kts 18°
2026-05-05 07:18 31.98671 -81.03511 35046 ft 473 kts 18°
2026-05-05 07:19 32.04623 -81.00208 35049 ft 473 kts 18°
2026-05-05 07:19 32.10568 -80.96878 35055 ft 473 kts 19°
2026-05-05 07:20 32.16520 -80.93538 35065 ft 473 kts 19°
2026-05-05 07:20 32.22466 -80.90201 35073 ft 473 kts 19°
2026-05-05 07:21 32.28418 -80.86857 35084 ft 474 kts 19°
2026-05-05 07:21 32.34379 -80.83504 35076 ft 474 kts 19°
2026-05-05 07:22 32.40290 -80.80174 35077 ft 473 kts 19°
2026-05-05 07:22 32.46248 -80.76813 35097 ft 474 kts 19°
2026-05-05 07:23 32.52208 -80.73445 35094 ft 475 kts 19°
2026-05-05 07:23 32.58170 -80.70072 35094 ft 475 kts 19°
2026-05-05 07:24 32.64127 -80.66694 35094 ft 474 kts 19°
2026-05-05 07:24 32.70083 -80.63313 35085 ft 474 kts 19°
2026-05-05 07:25 32.76012 -80.59860 35090 ft 474 kts 20°
2026-05-05 07:25 32.81910 -80.56346 35092 ft 475 kts 20°
2026-05-05 07:26 32.87806 -80.52823 35085 ft 474 kts 20°
2026-05-05 07:26 32.93793 -80.49252 35096 ft 475 kts 20°
2026-05-05 07:27 32.99700 -80.45729 35087 ft 474 kts 20°
2026-05-05 07:27 33.05593 -80.42210 35084 ft 473 kts 21°
2026-05-05 07:28 33.11479 -80.38688 35077 ft 473 kts 21°
2026-05-05 07:28 33.17369 -80.35159 35074 ft 473 kts 21°
2026-05-05 07:29 33.23244 -80.31634 35070 ft 472 kts 21°
2026-05-05 07:29 33.29074 -80.28132 35083 ft 472 kts 21°
2026-05-05 07:30 33.34932 -80.24608 35077 ft 471 kts 21°
2026-05-05 07:30 33.43716 -80.19314 35083 ft 471 kts 21°
2026-05-05 07:31 33.49566 -80.15780 35084 ft 471 kts 21°
2026-05-05 07:31 33.55408 -80.12247 35088 ft 470 kts 21°
2026-05-05 07:32 33.61255 -80.08703 35095 ft 470 kts 21°
2026-05-05 07:32 33.67090 -80.05163 35096 ft 470 kts 21°
2026-05-05 07:33 33.72930 -80.01615 35096 ft 470 kts 21°
2026-05-05 07:33 33.78756 -79.98069 35080 ft 469 kts 21°
2026-05-05 07:34 33.84584 -79.94517 35091 ft 469 kts 22°
2026-05-05 07:34 33.90400 -79.90967 35092 ft 469 kts 22°
2026-05-05 07:35 33.96184 -79.87432 35088 ft 469 kts 22°
2026-05-05 07:35 34.02002 -79.83870 35086 ft 469 kts 22°
2026-05-05 07:36 34.07815 -79.80305 35083 ft 469 kts 22°
2026-05-05 07:36 34.13629 -79.76733 35085 ft 469 kts 22°
2026-05-05 07:37 34.19448 -79.73154 35077 ft 469 kts 22°
2026-05-05 07:37 34.25257 -79.69576 35082 ft 469 kts 22°
2026-05-05 07:38 34.31072 -79.65988 35082 ft 469 kts 22°
2026-05-05 07:38 34.36887 -79.62396 35080 ft 469 kts 22°
2026-05-05 07:39 34.42698 -79.58800 35081 ft 469 kts 21°
2026-05-05 07:39 34.48499 -79.55202 35084 ft 468 kts 21°
2026-05-05 07:40 34.54301 -79.51598 35081 ft 469 kts 22°
2026-05-05 07:40 34.60060 -79.47843 35084 ft 470 kts 24°
2026-05-05 07:41 34.65770 -79.43975 35078 ft 470 kts 24°
2026-05-05 07:41 34.71700 -79.40899 35079 ft 457 kts
2026-05-05 07:42 34.77850 -79.39292 35086 ft 454 kts
2026-05-05 07:42 34.84074 -79.37967 35074 ft 453 kts
2026-05-05 07:43 34.90297 -79.36689 35078 ft 453 kts
2026-05-05 07:43 34.96509 -79.35388 35066 ft 453 kts
2026-05-05 07:44 35.02722 -79.34065 35066 ft 453 kts
2026-05-05 07:44 35.08888 -79.32743 35061 ft 452 kts
2026-05-05 07:45 35.14080 -79.31628 35064 ft 452 kts
2026-05-05 07:45 35.21280 -79.30081 35072 ft 452 kts
2026-05-05 07:46 35.26467 -79.28966 35072 ft 452 kts
2026-05-05 07:46 35.32658 -79.27633 35072 ft 452 kts
2026-05-05 07:47 35.38854 -79.26298 35073 ft 452 kts
2026-05-05 07:47 35.45054 -79.24957 35073 ft 452 kts
2026-05-05 07:48 35.51198 -79.23625 35077 ft 451 kts
2026-05-05 07:48 35.57378 -79.22286 35069 ft 451 kts
2026-05-05 07:49 35.63555 -79.20946 35072 ft 451 kts
2026-05-05 07:49 35.69739 -79.19600 35076 ft 451 kts
2026-05-05 07:50 35.75769 -79.17134 35063 ft 465 kts 22°
2026-05-05 07:50 35.81287 -79.12857 35065 ft 472 kts 29°
2026-05-05 07:51 35.86659 -79.08174 35065 ft 473 kts 30°
2026-05-05 07:51 35.92005 -79.03429 35066 ft 473 kts 30°
2026-05-05 07:52 35.97368 -78.98704 35065 ft 473 kts 30°
2026-05-05 07:52 36.02738 -78.93997 35066 ft 473 kts 30°
2026-05-05 07:53 36.08094 -78.89306 35063 ft 471 kts 30°
2026-05-05 07:53 36.13431 -78.84625 35063 ft 470 kts 30°
2026-05-05 07:54 36.18764 -78.79939 35065 ft 470 kts 30°
2026-05-05 07:54 36.24060 -78.75275 35063 ft 471 kts 30°
2026-05-05 07:55 36.29401 -78.70564 35062 ft 471 kts 30°
2026-05-05 07:55 36.34743 -78.65843 35057 ft 471 kts 30°
2026-05-05 07:56 36.40083 -78.61118 35055 ft 471 kts 30°
2026-05-05 07:56 36.45432 -78.56422 35055 ft 470 kts 28°
2026-05-05 07:57 36.50922 -78.52036 35045 ft 468 kts 26°
2026-05-05 07:57 36.56458 -78.47770 35036 ft 468 kts 26°
2026-05-05 07:58 36.61950 -78.43512 35040 ft 468 kts 26°
2026-05-05 07:58 36.67459 -78.39196 35041 ft 468 kts 26°
2026-05-05 07:59 36.72952 -78.34870 35042 ft 468 kts 27°
2026-05-05 07:59 36.78452 -78.30529 35046 ft 467 kts 27°
2026-05-05 08:00 36.83936 -78.26194 35043 ft 466 kts 27°
2026-05-05 08:00 36.89418 -78.21857 35036 ft 466 kts 27°
2026-05-05 08:01 36.94899 -78.17512 35026 ft 466 kts 27°
2026-05-05 08:01 37.00361 -78.13174 35027 ft 465 kts 27°
2026-05-05 08:02 37.05816 -78.08833 35025 ft 464 kts 27°
2026-05-05 08:02 37.11258 -78.04497 35017 ft 463 kts 27°
2026-05-05 08:03 37.16658 -78.00186 35017 ft 463 kts 27°
2026-05-05 08:03 37.22085 -77.95846 35023 ft 463 kts 27°
2026-05-05 08:04 37.27513 -77.91497 35017 ft 462 kts 27°
2026-05-05 08:04 37.32922 -77.87153 35016 ft 461 kts 28°
2026-05-05 08:05 37.38335 -77.82802 35025 ft 461 kts 28°
2026-05-05 08:05 37.43737 -77.78453 35019 ft 460 kts 28°
2026-05-05 08:06 37.49124 -77.74108 35018 ft 460 kts 28°
2026-05-05 08:06 37.54307 -77.69343 35016 ft 463 kts 34°
2026-05-05 08:07 37.59286 -77.64182 35021 ft 464 kts 35°
2026-05-05 08:07 37.64244 -77.58956 35016 ft 464 kts 36°
2026-05-05 08:08 37.69193 -77.53719 35019 ft 464 kts 36°
2026-05-05 08:08 37.74139 -77.48476 35018 ft 464 kts 36°
2026-05-05 08:09 37.79053 -77.43257 35014 ft 464 kts 36°
2026-05-05 08:09 37.83998 -77.37996 35015 ft 464 kts 36°
2026-05-05 08:10 37.88937 -77.32731 35002 ft 464 kts 36°
2026-05-05 08:10 37.93883 -77.27448 35002 ft 465 kts 36°
2026-05-05 08:11 37.98820 -77.22166 34999 ft 465 kts 36°
2026-05-05 08:11 38.03780 -77.16896 34986 ft 463 kts 32°
2026-05-05 08:12 38.08954 -77.12108 34987 ft 459 kts 32°
2026-05-05 08:12 38.14171 -77.07546 34986 ft 457 kts 30°
2026-05-05 08:13 38.19456 -77.03037 34987 ft 458 kts 31°
2026-05-05 08:13 38.24568 -76.98131 34985 ft 460 kts 33°
2026-05-05 08:14 38.29642 -76.93163 34980 ft 460 kts 33°
2026-05-05 08:14 38.34707 -76.88170 34973 ft 460 kts 34°
2026-05-05 08:15 38.39760 -76.83172 34972 ft 460 kts 34°
2026-05-05 08:15 38.44822 -76.78160 34971 ft 461 kts 34°
2026-05-05 08:16 38.49883 -76.73135 34972 ft 461 kts 34°
2026-05-05 08:16 38.54915 -76.68131 34963 ft 461 kts 34°
2026-05-05 08:17 38.59963 -76.63099 34961 ft 461 kts 34°
2026-05-05 08:17 38.65008 -76.58061 34956 ft 460 kts 34°
2026-05-05 08:18 38.70058 -76.53009 34953 ft 460 kts 34°
2026-05-05 08:18 38.75099 -76.47957 34956 ft 460 kts 34°
2026-05-05 08:19 38.80131 -76.42902 34952 ft 460 kts 34°
2026-05-05 08:19 38.85168 -76.37836 34945 ft 460 kts 34°
2026-05-05 08:20 38.90195 -76.32769 34941 ft 460 kts 34°
2026-05-05 08:20 38.92718 -76.30224 34718 ft 461 kts 34°
2026-05-05 08:20 38.95245 -76.27671 34468 ft 462 kts 34°
2026-05-05 08:21 38.97776 -76.25112 34233 ft 463 kts 34°
2026-05-05 08:21 39.00300 -76.22557 33969 ft 462 kts 34°
2026-05-05 08:21 39.02825 -76.19999 33718 ft 461 kts 34°
2026-05-05 08:21 39.04495 -76.18305 33498 ft 459 kts 34°
2026-05-05 08:22 39.07849 -76.14902 32570 ft 459 kts 34°
2026-05-05 08:22 39.10353 -76.12359 31821 ft 459 kts 34°
2026-05-05 08:22 39.12867 -76.09802 31056 ft 460 kts 34°
2026-05-05 08:22 39.15380 -76.07244 30286 ft 460 kts 34°
2026-05-05 08:23 39.17859 -76.04719 29491 ft 461 kts 34°
2026-05-05 08:23 39.20377 -76.02151 28654 ft 462 kts 35°
2026-05-05 08:23 39.22899 -75.99576 27831 ft 462 kts 35°
2026-05-05 08:23 39.25426 -75.96996 26942 ft 463 kts 35°
2026-05-05 08:24 39.27957 -75.94408 26046 ft 464 kts 35°
2026-05-05 08:24 39.30486 -75.91820 25134 ft 465 kts 35°
2026-05-05 08:24 39.33021 -75.89223 24188 ft 466 kts 36°
2026-05-05 08:24 39.35554 -75.86624 23557 ft 462 kts 36°
2026-05-05 08:25 39.38107 -75.84005 23305 ft 476 kts 36°
2026-05-05 08:25 39.40717 -75.81324 23047 ft 481 kts 36°
2026-05-05 08:25 39.43341 -75.78625 22792 ft 480 kts 36°
2026-05-05 08:25 39.45947 -75.75941 22538 ft 478 kts 36°
2026-05-05 08:26 39.48545 -75.73262 22293 ft 477 kts 36°
2026-05-05 08:26 39.51136 -75.70589 22043 ft 476 kts 36°
2026-05-05 08:26 39.53717 -75.67924 21793 ft 474 kts 36°
2026-05-05 08:26 39.56289 -75.65265 21544 ft 473 kts 36°
2026-05-05 08:27 39.58860 -75.62605 21299 ft 472 kts 36°
2026-05-05 08:27 39.61423 -75.59951 21043 ft 470 kts 36°
2026-05-05 08:27 39.63972 -75.57309 20785 ft 469 kts 36°
2026-05-05 08:27 39.66521 -75.54663 20541 ft 465 kts 36°
2026-05-05 08:28 39.68995 -75.52089 20301 ft 447 kts 36°
2026-05-05 08:28 39.71371 -75.49616 20060 ft 430 kts 36°
2026-05-05 08:28 39.73671 -75.47220 19820 ft 415 kts 35°
2026-05-05 08:28 39.75885 -75.44912 19579 ft 401 kts 35°
2026-05-05 08:29 39.78030 -75.42675 19327 ft 388 kts 35°
2026-05-05 08:29 39.80108 -75.40507 19092 ft 377 kts 35°
2026-05-05 08:29 39.82123 -75.38404 18853 ft 369 kts 35°
2026-05-05 08:30 39.85451 -75.34932 18432 ft 368 kts 35°
2026-05-05 08:30 39.87416 -75.32877 18181 ft 357 kts 35°
2026-05-05 08:30 39.89328 -75.30873 17946 ft 347 kts 35°
2026-05-05 08:30 39.91192 -75.28919 17551 ft 342 kts 34°
2026-05-05 08:31 39.93055 -75.26969 17003 ft 343 kts 34°
2026-05-05 08:31 39.94908 -75.25024 16491 ft 342 kts 34°
2026-05-05 08:31 39.96747 -75.23095 16123 ft 337 kts 34°
2026-05-05 08:31 39.98552 -75.21198 15746 ft 331 kts 34°
2026-05-05 08:32 40.00339 -75.19321 15317 ft 328 kts 34°
2026-05-05 08:32 40.02108 -75.17460 14845 ft 327 kts 34°
2026-05-05 08:32 40.03879 -75.15595 14375 ft 326 kts 34°
2026-05-05 08:32 40.05636 -75.13745 13922 ft 323 kts 34°
2026-05-05 08:33 40.07380 -75.11908 13471 ft 321 kts 34°
2026-05-05 08:33 40.09089 -75.10106 13021 ft 319 kts 33°
2026-05-05 08:33 40.10834 -75.08265 12566 ft 317 kts 33°
2026-05-05 08:33 40.12511 -75.06457 12097 ft 317 kts 36°
2026-05-05 08:34 40.14176 -75.04492 11277 ft 328 kts 38°
2026-05-05 08:34 40.15875 -75.02420 10403 ft 341 kts 39°
2026-05-05 08:34 40.17733 -75.00147 10002 ft 382 kts 40°
2026-05-05 08:34 40.19738 -74.97686 9698 ft 398 kts 40°
2026-05-05 08:35 40.21708 -74.95251 9489 ft 381 kts 40°
2026-05-05 08:35 40.23569 -74.92950 9246 ft 364 kts 40°
2026-05-05 08:35 40.25353 -74.90704 9050 ft 349 kts 43°
2026-05-05 08:35 40.26995 -74.88457 8852 ft 334 kts 44°
2026-05-05 08:36 40.28550 -74.86277 8664 ft 321 kts 44°
2026-05-05 08:36 40.30045 -74.84172 8409 ft 311 kts 44°
2026-05-05 08:36 40.31514 -74.82109 7931 ft 310 kts 44°
2026-05-05 08:36 40.32973 -74.80058 7644 ft 304 kts 45°
2026-05-05 08:37 40.34412 -74.78035 7508 ft 303 kts 45°
2026-05-05 08:37 40.35855 -74.76006 7399 ft 304 kts 45°
2026-05-05 08:37 40.37301 -74.73972 7291 ft 304 kts 45°
2026-05-05 08:37 40.38740 -74.71944 7167 ft 303 kts 45°
2026-05-05 08:38 40.40173 -74.69926 7055 ft 303 kts 45°
2026-05-05 08:38 40.41655 -74.67969 6984 ft 301 kts 36°
2026-05-05 08:38 40.43460 -74.66691 6937 ft 293 kts 13°
2026-05-05 08:38 40.45425 -74.66039 6856 ft 291 kts
2026-05-05 08:39 40.47413 -74.65519 6747 ft 291 kts
2026-05-05 08:39 40.49406 -74.65011 6637 ft 291 kts
2026-05-05 08:39 40.51388 -74.64498 6521 ft 291 kts
2026-05-05 08:39 40.53373 -74.63977 6408 ft 291 kts
2026-05-05 08:40 40.55362 -74.63452 6295 ft 291 kts
2026-05-05 08:40 40.57350 -74.62923 6183 ft 291 kts
2026-05-05 08:40 40.59330 -74.62394 6073 ft 291 kts
2026-05-05 08:40 40.61292 -74.61870 5968 ft 292 kts
2026-05-05 08:41 40.63278 -74.61338 5846 ft 291 kts
2026-05-05 08:41 40.65270 -74.60804 5739 ft 291 kts
2026-05-05 08:41 40.67253 -74.60272 5630 ft 290 kts
2026-05-05 08:41 40.69223 -74.59743 5519 ft 290 kts
2026-05-05 08:42 40.71210 -74.59208 5406 ft 290 kts
2026-05-05 08:42 40.73187 -74.58676 5300 ft 290 kts
2026-05-05 08:42 40.75165 -74.58143 5193 ft 290 kts
2026-05-05 08:42 40.77145 -74.57611 5077 ft 290 kts
2026-05-05 08:43 40.79121 -74.57079 4969 ft 290 kts
2026-05-05 08:43 40.81064 -74.56352 4881 ft 293 kts 23°
2026-05-05 08:43 40.82682 -74.54745 4817 ft 293 kts 51°
2026-05-05 08:43 40.83747 -74.52462 4737 ft 293 kts 65°
2026-05-05 08:44 40.84601 -74.50008 4662 ft 294 kts 67°
2026-05-05 08:44 40.85418 -74.47539 4590 ft 293 kts 68°
2026-05-05 08:44 40.86230 -74.45066 4514 ft 293 kts 68°
2026-05-05 08:44 40.87031 -74.42586 4433 ft 292 kts 71°
2026-05-05 08:45 40.87637 -74.40032 4354 ft 291 kts 77°
2026-05-05 08:45 40.88158 -74.37457 4228 ft 290 kts 77°
2026-05-05 08:45 40.88667 -74.34875 4027 ft 289 kts 77°
2026-05-05 08:45 40.89171 -74.32314 3826 ft 288 kts 77°
2026-05-05 08:46 40.89675 -74.29762 3624 ft 286 kts 77°
2026-05-05 08:46 40.90177 -74.27253 3429 ft 286 kts 77°
2026-05-05 08:46 40.90694 -74.24689 3217 ft 285 kts 78°
2026-05-05 08:46 40.91211 -74.22162 3041 ft 284 kts 78°
2026-05-05 08:47 40.91734 -74.19653 2988 ft 282 kts 77°
2026-05-05 08:47 40.92256 -74.17157 2988 ft 281 kts 79°
2026-05-05 08:47 40.92392 -74.14631 2987 ft 272 kts 105°
2026-05-05 08:47 40.91687 -74.12399 2981 ft 260 kts 131°
2026-05-05 08:48 40.90480 -74.10636 2981 ft 259 kts 141°
2026-05-05 08:48 40.89162 -74.09015 2974 ft 255 kts 144°
2026-05-05 08:48 40.87749 -74.07802 2975 ft 231 kts 160°
2026-05-05 08:48 40.86256 -74.07256 2975 ft 218 kts 182°
2026-05-05 08:49 40.84753 -74.07433 2982 ft 217 kts 192°
2026-05-05 08:49 40.83293 -74.07951 2977 ft 217 kts 203°
2026-05-05 08:49 40.81916 -74.08760 2985 ft 217 kts 207°
2026-05-05 08:49 40.80564 -74.09646 2844 ft 218 kts 207°
2026-05-05 08:50 40.79188 -74.10530 2360 ft 223 kts 204°
2026-05-05 08:50 40.77773 -74.11426 1865 ft 229 kts 203°
2026-05-05 08:50 40.76331 -74.12340 1503 ft 226 kts 206°
2026-05-05 08:50 40.74968 -74.13210 1175 ft 211 kts 207°
2026-05-05 08:51 40.73670 -74.14039 884 ft 205 kts 207°
2026-05-05 08:51 40.72389 -74.14855 616 ft 201 kts 206°
2026-05-05 08:51 40.71189 -74.15620 356 ft 182 kts 206°
2026-05-05 08:51 40.70110 -74.16307 100 ft 164 kts 206°
2026-05-05 08:52 40.69194 -74.16890 23 ft 113 kts 205°
2026-05-05 08:52 40.68751 -74.17169 32 ft 28 kts 199°
2026-05-05 08:52 40.68712 -74.17181 26 ft 1 kts 187°
2026-05-05 08:52 40.68703 -74.17183 26 ft 2 kts 186°
2026-05-05 08:53 40.68671 -74.17214 26 ft 6 kts 230°
2026-05-05 08:53 40.68653 -74.17262 27 ft 5 kts 255°
2026-05-05 08:53 40.68652 -74.17295 28 ft 11 kts 267°
2026-05-05 08:53 40.68651 -74.17304 29 ft 0 kts 266°
2026-05-05 09:01 40.68654 -74.17328 29 ft 5 kts 282°
2026-05-05 09:02 40.68655 -74.17336 29 ft 0 kts 282°
2026-05-05 09:06 40.68658 -74.17357 30 ft 14 kts 280°
2026-05-05 09:06 40.68590 -74.17439 29 ft 15 kts 200°
2026-05-05 09:06 40.68569 -74.17473 29 ft 9 kts 283°
2026-05-05 09:06 40.68613 -74.17535 28 ft 11 kts
2026-05-05 09:07 40.68676 -74.17505 28 ft 12 kts
2026-05-05 09:07 40.68719 -74.17550 27 ft 5 kts 304°
2026-05-05 09:07 40.68744 -74.17598 26 ft 7 kts 306°
2026-05-05 09:07 40.68755 -74.17618 26 ft 1 kts 307°